Terminal Aerodrome Forecast
Issued by NWS Charleston, WV

Current Version | Previous Version | Graphics & Text | Print | Product List | Glossary On
Versions: 1 2 3 4 5 6 7 8 9 10 11 12 13 14 15 16 17 18 19 20 21
000
FTUS41 KRLX 292335
TAFPKB
TAF
KPKB 292335Z 3000/3024 26004KT P6SM SCT050
     FM300200 24004KT P6SM VCTS BKN045CB
     FM300300 26004KT 3SM TSRA BKN035CB
     FM300500 VRB03KT 4SM BR VCTS BKN040CB
     FM300900 VRB03KT 3SM BR BKN035
     FM301100 VRB03KT 6SM BR BKN045
     FM301300 32007KT P6SM SCT045=

USA.gov is the U.S. government's official web portal to all federal, state and local government web resources and services.